Wind_Speed
6 7 9 11 13 15 17 17 16 15 13 14 14 14 15 14 15 16 17 17 17 17 17 17 16 12 9 11 15 13 10 12 12 13 16 18 17 13 11 9 7 3 6
5 7 12 14 15 18 19 17 16 14 13 12 13 12 14 14 15 15 16 17 16 17 16 16 17 15 15 10 10 13 12 13 14 13 16 19 17 18 15 14 12 12 8
6 8 10 16 21 22 19 16 14 12 11 11 11 11 11 14 15 16 17 16 16 16 17 18 17 17 15 16 12 9 11 13 11 17 15 9 13 16 20 16 13 14 10
7 9 10 18 21 18 16 14 15 14 12 10 9 12 11 13 15 15 15 16 15 16 16 16 17 18 17 15 15 10 11 12 13 13 11 11 13 12 15 22 17 17 13
8 10 14 18 17 16 13 13 12 12 12 12 11 12 14 14 15 15 15 14 14 16 17 17 17 17 18 17 16 15 13 13 17 18 15 14 18 14 16 24 23 20 18
8 10 14 15 15 13 12 12 11 11 12 12 13 13 13 14 15 15 14 15 14 16 16 16 16 17 18 18 18 16 16 15 15 18 16 17 21 17 22 21 25 23 21
8 9 10 13 12 10 9 10 11 11 11 14 15 15 16 17 17 16 17 17 16 16 17 18 18 17 17 17 19 19 19 19 19 20 16 16 19 21 21 25 21 22 25
7 8 9 13 14 11 10 10 9 11 13 14 15 15 16 16 17 18 19 18 18 18 19 18 18 19 18 18 18 19 21 23 21 20 16 17 20 19 19 20 20 21 20
7 8 8 9 10 14 12 12 12 12 12 12 12 14 16 17 19 21 22 22 21 20 18 20 20 20 21 22 21 22 23 22 21 19 16 15 14 17 20 22 19 18 20
7 7 8 9 9 9 8 13 12 12 12 13 14 15 18 18 19 21 22 24 24 22 20 20 20 21 22 22 21 20 21 21 14 16 16 14 16 20 21 20 20 20 21
6 7 8 8 9 10 9 12 12 13 14 14 14 16 14 13 15 19 20 23 22 22 22 19 21 20 21 17 18 19 20 14 16 16 16 15 18 19 21 21 21 22 20
5 6 7 7 9 9 8 10 10 10 11 11 13 15 15 15 15 17 17 18 19 19 19 19 20 20 16 17 17 17 15 17 18 17 17 18 20 21 21 22 23 23 23
4 5 7 8 9 9 9 10 9 9 11 11 14 16 16 15 15 16 17 17 18 19 19 20 19 17 18 18 17 17 18 18 18 18 17 20 22 23 23 23 23 23 24
5 6 6 8 8 9 9 9 9 10 12 12 13 14 16 15 15 16 16 17 18 18 19 18 18 19 19 17 18 17 18 18 18 20 20 21 23 24 25 25 24 25 25
4 5 6 6 8 8 8 9 9 9 10 11 11 13 15 15 15 16 16 16 16 16 17 19 17 19 19 18 18 18 17 18 18 19 21 22 24 25 25 26 27 27 26
4 4 4 5 8 9 9 10 10 9 10 9 10 13 14 15 15 15 14 14 15 15 15 18 16 17 19 18 18 18 19 19 19 20 21 23 23 24 26 27 27 28 28
3 3 4 5 7 8 8 9 8 8 9 9 10 12 14 14 15 14 13 14 16 17 19 20 19 20 21 20 19 18 20 20 21 21 22 23 22 23 26 26 27 28 28
2 3 3 5 5 7 8 8 8 8 8 9 10 12 15 14 15 14 14 15 17 20 19 20 20 21 22 20 20 20 22 23 20 21 20 20 23 26 28 27 26 28 29
3 3 3 4 6 8 8 7 7 7 8 8 10 12 15 14 15 14 13 15 19 17 18 18 17 20 22 21 22 24 22 22 16 17 17 20 24 27 31 33 32 30 31
4 3 3 4 5 8 7 7 6 6 7 8 10 12 14 14 14 14 13 14 19 18 18 18 18 19 19 20 26 22 23 20 23 14 21 22 22 26 33 27 28 28 27
4 3 3 3 5 6 6 6 5 6 6 7 10 12 13 14 15 14 14 15 16 19 20 16 15 19 21 19 22 25 18 17 9 19 17 20 25 31 30 25 24 24 25
5 5 4 3 5 6 5 6 5 5 6 8 10 10 12 13 13 13 15 14 15 16 17 21 20 20 21 19 24 25 17 26 16 19 19 20 24 34 26 23 19 18 20
5 5 4 4 4 4 6 5 6 6 7 7 9 10 12 12 13 14 14 15 15 16 16 20 18 17 21 19 18 20 12 11 30 12 19 21 26 32 23 19 15 13 14
7 8 6 6 4 4 5 3 4 5 6 7 8 10 10 11 11 12 14 14 14 14 15 17 18 18 18 20 19 15 18 22 23 19 22 22 25 31 21 14 16 15 14
11 9 7 7 6 5 4 4 3 4 5 6 7 10 10 10 10 11 13 13 13 14 14 16 16 17 19 18 21 22 21 22 22 22 25 34 27 29 13 17 20 15 9
12 11 10 8 6 7 5 5 5 5 6 6 7 8 9 9 9 10 13 12 12 14 14 15 16 16 17 17 18 21 19 22 24 21 25 28 27 30 20 14 18 17 11
Wind_Direction
10 13 357 1 357 353 349 351 354 353 350 345 350 348 353 354 358 360 5 357 356 355 357 358 357 349 346 355 1 338 310 313 298 286 268 260 265 270 259 241 240 259 282
21 5 1 330 343 341 342 350 352 355 354 354 352 355 357 359 352 1 357 357 357 352 355 354 354 356 352 329 337 347 345 309 316 303 272 260 273 270 269 258 246 241 263
15 2 351 326 330 332 341 1 360 357 350 3 346 352 0 359 355 353 355 352 353 348 356 353 351 350 349 344 331 332 332 341 309 278 285 311 255 287 264 268 257 247 259
11 1 340 328 329 334 340 355 5 8 10 5 1 352 358 344 346 350 349 357 354 351 349 345 342 344 346 340 346 319 327 323 306 298 281 292 279 260 282 257 254 247 242
3 0 321 327 328 334 356 357 1 3 4 5 7 1 358 349 354 352 357 352 350 346 348 341 342 334 334 334 339 333 322 313 310 295 277 270 283 272 286 257 250 255 248
6 359 335 342 341 343 346 356 3 0 357 359 355 353 352 351 353 351 348 346 346 342 338 334 336 335 331 328 330 327 324 306 275 279 292 280 268 279 250 259 242 247 256
353 4 351 352 352 352 351 356 9 3 350 345 346 346 348 347 347 347 343 340 340 339 335 333 333 326 321 321 323 318 311 308 306 291 290 293 289 269 279 269 272 248 243
13 12 9 356 358 3 358 357 353 347 345 345 345 346 346 346 345 344 343 341 340 334 334 334 327 324 321 319 316 315 306 308 308 302 298 287 283 287 279 280 279 278 261
15 15 11 10 8 0 357 359 353 349 349 349 350 349 347 343 345 344 342 340 341 339 338 331 331 326 326 322 316 313 310 310 309 310 298 292 293 283 278 273 282 281 259
14 14 10 9 4 5 356 354 353 355 355 354 354 355 352 358 340 340 335 334 335 334 336 333 333 330 328 327 324 320 318 317 328 298 305 296 290 291 287 283 281 279 279
7 9 4 4 0 1 360 346 360 354 359 0 358 348 356 342 335 340 336 337 337 335 336 336 333 331 333 339 326 323 333 327 313 306 300 297 294 296 298 295 289 281 279
1 3 359 360 3 3 360 353 349 354 349 350 348 345 346 342 337 340 337 340 337 337 337 334 335 336 333 327 324 326 320 314 311 307 302 297 296 297 296 295 290 284 277
5 356 355 359 4 360 0 359 349 349 344 347 344 345 349 344 342 341 340 338 339 338 337 336 336 334 329 326 323 319 315 315 310 306 299 297 298 298 297 293 290 285 276
354 355 353 357 5 359 360 351 349 348 352 344 347 348 352 347 344 343 342 341 341 339 334 334 333 332 332 326 318 320 317 313 309 305 302 299 298 299 296 294 289 284 278
351 352 349 357 358 358 358 350 352 349 346 352 351 348 353 348 346 344 343 345 342 337 334 336 338 336 332 329 331 322 320 314 310 307 304 302 302 300 297 293 289 283 280
345 336 350 352 345 358 356 351 355 348 353 353 351 350 351 350 347 345 345 343 345 347 336 336 340 333 335 332 328 330 321 317 313 308 305 302 301 300 299 295 289 282 277
316 340 335 348 352 353 353 349 354 344 359 353 352 353 349 352 350 351 345 344 336 346 352 359 351 339 332 334 331 326 320 314 309 306 304 306 307 300 297 292 288 284 277
310 310 329 341 346 344 345 352 353 350 359 357 355 354 351 354 354 352 347 341 334 341 343 349 347 341 341 334 327 326 318 312 311 310 306 306 298 306 307 297 289 284 278
288 288 298 327 340 345 348 354 349 355 357 358 358 354 357 356 355 354 346 339 333 337 344 340 337 343 338 335 338 325 320 321 331 316 312 309 301 306 299 291 288 281 276
273 279 318 322 341 342 355 354 351 351 356 358 355 355 359 356 354 353 346 344 335 347 339 336 335 334 333 331 331 337 323 336 324 313 309 314 311 300 313 299 299 289 280
277 282 284 305 325 350 350 346 351 348 350 346 352 354 354 358 357 356 349 344 342 340 336 335 330 329 331 340 321 325 326 323 344 314 328 314 317 316 313 303 296 295 281
237 260 282 309 330 333 347 338 341 337 334 354 344 349 353 356 355 355 353 350 347 344 340 341 343 337 327 334 325 329 328 334 309 341 326 325 317 325 316 306 297 283 273
236 243 252 270 300 321 332 347 344 332 350 331 339 343 349 351 354 354 354 350 349 347 343 339 345 338 329 331 327 325 320 318 322 317 332 324 327 333 319 311 305 289 285
224 231 243 254 275 293 312 337 323 324 329 325 335 337 346 347 349 352 353 349 344 342 342 340 339 338 335 330 333 330 314 316 321 311 323 338 341 329 325 337 334 308 287
217 227 232 249 268 275 292 305 324 305 308 320 328 334 338 340 339 346 348 348 349 346 339 337 335 336 333 332 330 332 332 325 325 317 321 332 338 340 324 11 3 351 351
221 226 235 239 253 264 278 289 303 312 313 320 323 331 327 332 332 332 341 341 341 342 342 339 333 330 331 327 328 329 334 326 322 324 320 325 329 338 340 19 27 13 7
Height
1579 1578 1575 1574 1572 1571 1569 1567 1566 1565 1563 1560 1558 1556 1554 1551 1550 1548 1546 1545 1544 1542 1540 1539 1539 1537 1537 1536 1536 1536 1535 1535 1534 1533 1533 1531 1532 1533 1533 1533 1533 1534 1533
1579 1578 1576 1571 1570 1569 1567 1564 1562 1561 1560 1559 1556 1554 1553 1551 1549 1547 1546 1543 1542 1541 1540 1540 1537 1536 1535 1535 1534 1534 1534 1533 1532 1531 1529 1530 1532 1531 1532 1531 1532 1532 1532
1578 1577 1575 1569 1567 1566 1564 1564 1563 1561 1560 1559 1556 1554 1552 1551 1548 1546 1544 1543 1541 1540 1539 1538 1537 1536 1534 1533 1532 1532 1532 1531 1529 1527 1528 1530 1529 1529 1529 1530 1530 1530 1530
1576 1575 1571 1567 1565 1563 1562 1562 1561 1560 1559 1557 1555 1554 1552 1549 1547 1544 1542 1542 1541 1540 1538 1537 1536 1534 1533 1531 1530 1529 1529 1529 1528 1526 1527 1528 1527 1526 1526 1526 1527 1528 1528
1575 1573 1568 1566 1564 1562 1561 1561 1560 1559 1558 1556 1555 1554 1551 1548 1545 1544 1542 1541 1540 1539 1537 1536 1534 1533 1531 1529 1528 1528 1527 1526 1524 1522 1522 1522 1521 1523 1524 1522 1523 1525 1526
1574 1572 1567 1565 1564 1562 1561 1559 1558 1557 1555 1554 1552 1550 1549 1545 1543 1541 1541 1540 1538 1537 1536 1534 1532 1531 1530 1527 1525 1524 1523 1521 1520 1517 1517 1518 1518 1518 1518 1517 1519 1521 1522
1574 1572 1569 1565 1563 1562 1561 1559 1558 1556 1554 1551 1550 1548 1546 1544 1542 1541 1539 1537 1536 1535 1532 1529 1528 1528 1526 1524 1522 1520 1518 1516 1514 1514 1515 1516 1514 1514 1514 1513 1515 1517 1518
1573 1571 1569 1566 1563 1562 1560 1559 1557 1555 1553 1552 1549 1547 1545 1544 1542 1539 1538 1536 1534 1531 1529 1528 1526 1524 1522 1520 1518 1517 1513 1511 1510 1510 1511 1511 1510 1510 1509 1509 1511 1512 1514
1572 1570 1569 1567 1564 1562 1560 1558 1557 1555 1553 1552 1550 1548 1545 1542 1539 1537 1534 1532 1529 1527 1526 1523 1521 1519 1516 1514 1513 1511 1509 1508 1508 1506 1508 1507 1508 1505 1505 1504 1506 1508 1509
1572 1571 1569 1567 1565 1563 1562 1558 1557 1555 1553 1550 1548 1547 1544 1542 1539 1536 1533 1530 1527 1525 1523 1520 1518 1515 1513 1511 1510 1508 1506 1505 1505 1505 1505 1504 1502 1500 1500 1500 1501 1503 1504
1573 1571 1569 1567 1565 1562 1562 1558 1556 1554 1552 1551 1549 1546 1546 1544 1541 1536 1533 1529 1526 1523 1520 1519 1516 1513 1510 1511 1509 1506 1504 1505 1503 1502 1502 1501 1499 1497 1495 1495 1496 1497 1498
1573 1571 1569 1566 1563 1562 1562 1559 1558 1556 1554 1552 1549 1546 1544 1543 1540 1537 1533 1530 1527 1524 1521 1519 1516 1513 1512 1510 1508 1506 1505 1503 1501 1500 1499 1498 1496 1494 1493 1492 1491 1491 1492
1571 1569 1568 1566 1563 1563 1560 1559 1558 1556 1553 1552 1549 1546 1543 1542 1540 1536 1533 1530 1526 1524 1521 1518 1516 1514 1511 1508 1507 1505 1502 1500 1498 1497 1495 1493 1491 1489 1488 1487 1487 1487 1488
1572 1569 1567 1565 1564 1563 1561 1559 1558 1557 1553 1551 1548 1546 1543 1541 1538 1535 1533 1530 1527 1524 1521 1517 1514 1511 1509 1507 1504 1502 1501 1499 1497 1494 1491 1489 1487 1485 1483 1482 1482 1481 1482
1570 1568 1567 1565 1563 1562 1561 1559 1557 1556 1554 1551 1549 1546 1542 1540 1537 1535 1533 1530 1527 1524 1521 1515 1512 1510 1506 1503 1502 1500 1499 1497 1494 1491 1488 1485 1483 1481 1478 1477 1476 1475 1474
1569 1568 1566 1565 1563 1561 1560 1558 1556 1555 1552 1550 1548 1545 1543 1540 1537 1534 1533 1530 1526 1522 1519 1513 1511 1509 1504 1501 1498 1497 1496 1494 1491 1489 1485 1481 1479 1477 1474 1472 1470 1470 1468
1568 1566 1565 1564 1563 1561 1560 1557 1555 1554 1552 1550 1548 1546 1543 1539 1536 1534 1533 1530 1525 1521 1517 1513 1510 1508 1503 1500 1497 1496 1493 1490 1487 1484 1482 1478 1475 1472 1469 1466 1465 1464 1463
1566 1566 1564 1562 1562 1560 1559 1558 1557 1555 1553 1551 1549 1546 1542 1539 1536 1535 1533 1530 1526 1520 1517 1513 1510 1507 1504 1500 1496 1492 1489 1484 1481 1479 1477 1475 1471 1466 1462 1460 1459 1457 1456
1565 1564 1563 1562 1563 1561 1560 1558 1557 1555 1553 1552 1549 1546 1542 1539 1536 1534 1532 1530 1524 1520 1517 1515 1512 1508 1504 1500 1495 1491 1487 1480 1477 1476 1474 1471 1466 1463 1457 1453 1450 1449 1447
1562 1562 1563 1563 1562 1560 1560 1560 1558 1556 1554 1552 1549 1545 1542 1539 1536 1533 1531 1528 1524 1520 1518 1515 1512 1509 1505 1500 1494 1489 1485 1480 1477 1476 1472 1468 1462 1457 1452 1448 1444 1440 1439
1561 1561 1562 1561 1561 1560 1559 1558 1557 1556 1553 1550 1547 1545 1542 1539 1535 1533 1530 1527 1525 1520 1516 1512 1510 1507 1503 1499 1494 1489 1484 1480 1477 1472 1468 1465 1459 1451 1446 1443 1439 1435 1433
1561 1561 1561 1561 1560 1558 1557 1556 1554 1553 1551 1549 1547 1545 1542 1538 1535 1532 1529 1526 1524 1520 1516 1511 1507 1505 1502 1500 1495 1489 1481 1475 1473 1468 1467 1463 1457 1449 1442 1438 1434 1432 1430
1560 1560 1560 1559 1557 1557 1555 1554 1554 1553 1552 1551 1549 1545 1542 1539 1536 1533 1530 1527 1524 1521 1517 1511 1508 1505 1500 1497 1495 1491 1482 1478 1473 1469 1464 1460 1454 1447 1441 1436 1432 1429 1427
1557 1555 1555 1556 1556 1555 1553 1552 1551 1551 1550 1548 1546 1543 1541 1538 1536 1532 1530 1527 1524 1520 1518 1513 1508 1503 1499 1495 1491 1489 1485 1480 1474 1463 1460 1457 1452 1446 1439 1435 1431 1427 1423
1553 1552 1553 1553 1553 1552 1551 1550 1549 1549 1547 1546 1545 1541 1540 1537 1534 1531 1528 1524 1521 1519 1516 1512 1508 1504 1500 1496 1491 1486 1482 1478 1474 1468 1459 1453 1451 1446 1440 1434 1430 1426 1422
1549 1550 1550 1551 1551 1549 1548 1548 1547 1547 1546 1544 1542 1540 1538 1536 1533 1530 1526 1523 1520 1517 1513 1509 1506 1503 1499 1495 1491 1487 1482 1478 1472 1467 1462 1457 1452 1445 1441 1435 1431 1428 1424